Regional Weather Roundup
Issued by NWS San Diego, CA

Home | Current Version | Previous Version | Text Only | Print | Product List | Glossary On
Versions: 1 2 3 4 5 6 7 8 9 10 11 12 13 14 15 16 17 18 19 20 21 22 23 24 25 26 27 28 29 30 31 32 33 34 35 36 37 38 39 40 41 42 43 44 45 46 47 48 49 50
000
ASUS46 KSGX 240511
RWRSGX

SAN DIEGO HOURLY WEATHER ROUNDUP
NATIONAL WEATHER SERVICE SAN DIEGO CA
1000 PM PDT SAT JUL 23 2016

NOTE: "FAIR" INDICATES FEW OR NO CLOUDS BELOW 12,000 FEET WITH NO
SIGNIFICANT WEATHER AND/OR OBSTRUCTIONS TO VISIBILITY.

CAZ042-043-060-061-PZZ750-775-240600-

GREATER SAN DIEGO AREA

CITY           SKY/WX    TMP DP  RH WIND       PRES   REMARKS
LINDBERGH FLD  PTCLDY    68  65  90 CALM      29.84R
POINT LOMA       N/A     68  65  89 S8          N/A
NATIONAL CITY    N/A     71  67  87 CALM      29.84R
CHULA VISTA      N/A     71  67  88 NW2       29.75R
IMPERIAL BEACH CLEAR     70  62  76 CALM      29.83R
BROWN FIELD    CLEAR     73  64  73 CALM      29.83R
MIRAMAR MCAS   PTCLDY    71  57  61 CALM      29.83S
MONTGOMERY FLD CLEAR     74  61  63 W3        29.84R

$$

NORTH SAN DIEGO COUNTY

CITY           SKY/WX    TMP DP  RH WIND       PRES   REMARKS
CAMP PENDLETON CLEAR     70  66  87 MISG      29.83S FOG
OCEANSIDE AP   CLEAR     69  63  81 CALM      29.82S
OCEANSIDE HBR    N/A     71  68  90 CALM      29.85S
VISTA            N/A     71  65  82 CALM      29.80S
CARLSBAD       CLEAR     71  67  87 CALM      29.83R
DEL MAR          N/A     69  68  95 CALM      29.85R
LA JOLLA SCRIP   N/A     71  65  80 SE3       29.81S
FALLBROOK        N/A     71  66  84 CALM      29.81S
ESCONDIDO        N/A     77  66  68 W2        29.84R
SAN MARCOS       N/A     73  62  68 CALM      29.80R
POWAY            N/A     74  60  61 CALM      29.82S

$$

EAST SAN DIEGO COUNTY

CITY           SKY/WX    TMP DP  RH WIND       PRES   REMARKS
RAMONA         CLEAR     71  56  58 W3        29.88R
SANTEE LAKES     N/A     74  62  66 CALM      29.81R
LA MESA          N/A     72  63  73 CALM      29.75S
JAMUL            N/A     71  63  75 CALM      29.80R
DESCANSO N       N/A     75  45  34 CALM      29.67R
CAMPO            N/A     75  45  34 E5        29.92R

$$

ORANGE COUNTY AND THE LOS ANGELES BASIN

CITY           SKY/WX    TMP DP  RH WIND       PRES   REMARKS
JOHN WAYNE AP  PTCLDY    71  66  84 CALM      29.83R
LAGUNA BEACH     N/A    N/A N/A N/A CALM      29.78R
LAKE FOREST FR   N/A     75  55  48 CALM      29.70R
HUNTINGTON BCH   N/A     70  67  89 CALM      29.85R
LOS ALAMITOS   FAIR      70  65  84 SW2       29.83S
FULLERTON      CLEAR     74  65  73 CALM      29.83R
LONG BEACH     CLEAR     71  66  84 SE5       29.84R
L.A. AP        MOCLDY    72  64  76 E9        29.84R
L.A. DOWNTOWN  CLEAR     75  65  70 CALM      29.84R

$$

THE INLAND EMPIRE

CITY           SKY/WX    TMP DP  RH WIND       PRES   REMARKS
CORONA         CLEAR     76  65  68 CALM      29.86R
CHINO          CLEAR     78  57  48 W6        29.87R
ONTARIO        PTCLDY    79  57  46 W7        29.86R
SAN BERNARDINO FAIR      83  60  45 SW5       29.88R
RIVERSIDE AP   CLEAR     80  58  46 CALM      29.86R
MORENO VALLEY    N/A     80  63  55 SE1       28.03
MARCH ARB      CLEAR     80  45  29 S1        29.89R
HORSETHIEF CYN   N/A     81  58  46 CALM      29.83R
PERRIS           N/A     80  49  34 S2        29.88R
HEMET EAST       N/A     78  51  38 CALM      29.71R
FRENCH VALLEY  FAIR      77  50  38 CALM      29.89S
TEMECULA         N/A     77  57  49 W3        29.85R

$$

SAN BERNARDINO AND RIVERSIDE COUNTY MOUNTAINS

CITY           SKY/WX    TMP DP  RH WIND       PRES   REMARKS
BIG BEAR AP    CLEAR     68  36  30 W5        30.27R
PINE COVE        N/A     74  32  21 CALM      29.77R

$$

SOUTHERN DESERT INCLUDING THE COACHELLA VALLEY

CITY           SKY/WX    TMP DP  RH WIND       PRES   REMARKS
PALM SPRINGS   CLEAR    101  32   9 NW3       29.74R HX  95
THOUSAND PALMS   N/A     97  49  19 N6        29.70R
PALM DESERT      N/A    101  53  20 NE5       26.22  HX  99
THERMAL        CLEAR     92  67  43 CALM      29.66R HX  95
BLYTHE         CLEAR    100  61  27 S12       29.71R HX 101
IMPERIAL AP    MOCLDY    97  67  37 SE17      29.67R HX 101
EL CENTRO NAS  MOCLDY    93  69  45 SE14      29.69R HX  98
YUMA AZ        CLEAR     92  65  40 S15       29.71
MEXICALI       PTCLDY    90  68  48 SE14      29.70R

$$

UPPER DESERT

CITY           SKY/WX    TMP DP  RH WIND       PRES   REMARKS
VICTORVILLE AP CLEAR     84  34  16 SW6       29.93R HAZE
HESPERIA         N/A     86  36  16 W9        29.84R
PALMDALE       MOCLDY    85  37  18 W9        29.91R
LANCASTER      CLEAR     85  32  15 W23       29.90R
EDWARDS AFB    CLEAR     86  29  12 SW9       29.86R
DAGGETT        CLOUDY    95  33  11 W13       29.82R HAZE
29 PALMS N     MOCLDY    95  48  20 E6        29.88R
NEEDLES        PTCLDY   106  54  17 SW14      29.71R HX 104

$$

REGIONAL REPORTS

CITY           SKY/WX    TMP DP  RH WIND       PRES   REMARKS
SANTA BARBARA  CLEAR     65  62  90 SE3       29.83R
SANDBERG       CLEAR     78  24  13 N12       30.10R
LAS VEGAS NV   CLEAR    101  31   8 SW5       29.75R
PHOENIX AZ     PTCLDY   101  59  24 W13       29.74R HX 101
TIJUANA        PTCLDY    75  61  60 NW6       29.84S
ENSENADA NW      N/A     68  32  26 NW3       29.81R

$$

OFFSHORE ISLANDS

CITY           SKY/WX    TMP DP  RH WIND       PRES   REMARKS
CATALINA ARPT  CLEAR     76  42  29 S7        29.88R
SAN NICOLAS IS PTCLDY    74  32  21 E6        29.82R

$$

MARINE AND OFFSHORE BUOY REPORTS

STATION/POSITION SKY/WX   TEMP    WIND        PRES    SWELL
                          AIR SEA DIR/SP/G            HT/PER/DIR
                          (F)     (DEG/KT/KT) (MB)    (FT/S/D)
TANNER BANKS               63 63  330/ 12/ 14 1009.3R   7/320/ 9
S CLEMENTE BASIN           67 69  150/  4/  6 1009.1R   7/170/14
SAN NICOLAS IS.               60                N/A     3/180/14
SO. S. ROSA ISLA           60 61  320/ 17/ 19 1009.5R   7/180/15
W. S. BARBARA CH           57 54  320/ 17/ 19 1009.3R   5/300/ 9
M. S. BARBARA CH                  220/  6/ 10 1009.8R
S. MONICA BASIN            70 72  110/ 10/ 12 1009.7R   3/170/15
S PEDRO CHANNEL               71                N/A     2/170/14
OCEANSIDE OFFSHR              75                N/A     2/190/15
LA JOLLA 1                 72 76  220/  2/  4 1009.7
SAN DIEGO BAY                 78              1010.1
POINT LOMA SOUTH              72                N/A     3/170/15

$$




USA.gov is the U.S. government's official web portal to all federal, state and local government web resources and services.